Hauptseite
METAR-TAF:

METAR-TAF

Flughäfen :

Flughafen Le Luc-Le Cannet

Le Luc, Frankreich

Breite: 43-23N, Länge: 006-23E, Höhe: 80 m

Beobachtung

Neuester Wetterbericht von vor 29 Minuten, um 01:30 UTC
Wind 4 kt aus West/Südwest, variierte zwischen Süd/Südwest und West
Temperatur 19°C
Luftfeuchtigkeit 83%
Luftdruck 1011 hPa
Sichtweite 10 km oder mehr

METAR: LFMC 170130Z AUTO 24004KT 200V270 9999 ////// 19/16 Q1011

Zeit: 03:59 (01:59 UTC)


TAF: fehlend

Wetterbeobachtungen und Prognosen von mehr als 4000 Flughäfen (METAR und TAF Bericht).

Die verfügbaren Stationen werden durch gelbe und rote Markierungen auf der Karte dargestellt.

Führen Sie die Maus auf sie, um den Namen der Station zu sehen.

Darauf klicken, um die Beobachtung von Wetterbeobachtungen und Prognosen zu sehen.

Um die Karte zu ändern : klicken Sie auf den grünen Tasten mit einem schwarzen Kreuz Zum Vergrößern, auf den grünen Button mit einem Gedankenstrich zu verkleinern, oder auf die grünen Pfeile für benachbarte Karten.


METAR-TAF: